Forside
METAR-TAF:

METAR-TAF

Lufthavne :

Richard I. Bong Airport

Superior, Wisconsin, USA

Breddekreds: 46-41-23N, længdekreds: 092-05-41W, højde: 205 m

Aktuelle vejr

Denne rapport blev lavet for 22 minutter siden, kl. 22:15 UTC
Vind 8 kt fra nordøst
Temperatur 19°C
Fugtighed 56%
Tryk 1016 hPa
Sigt: 16.1 km
skyfri

METAR: KSUW 162215Z AUTO 04008KT 10SM CLR 19/10 A2999 RMK AO2 T01920103

Tid: 17:37 (22:37 UTC)


TAF: fraværende

Vejrobservationer og prognoser fra mere end 4000 lufthavne (METAR og TAF).

De gule og røde prikker repræsenterer de meteorologiske stationer.

Flyt musen over at se navnet på stationen.

Så klik over at se vejr observationer og prognoser.

At skifte det kort: Klik på de grønne knapper med et sort kors for at zoome ind; på den grønne knap med en bindestreg for at zoome ud; eller på de grønne pile for tilstødende kort.


METAR-TAF: